{"data":{"norad_id":57637,"intl_designator":"2023-122F","name":"STARLINK-30311","alt_names":[],"object_type":"PAYLOAD","status":"ACTIVE","operator":null,"country":"US","launch_date":"2023-08-17","launch_site_code":"AFETR","launch_vehicle":null,"mission":null,"orbit_class":"UNKNOWN","rcs_meters":null,"size_class":null,"mass_kg":null,"dimensions":null,"purposes":["comms"],"wikipedia_slug":null,"has_3d_model":false,"image_url":null,"decayed_at":null,"tle_current":{"epoch":"2026-09-19T21:44:37.758048Z","epoch_age_seconds":183006,"freshness":"STALE","line1":"1 57637U 23122F   26262.90599257  .00000673  00000+0  33986-4 0  9990","line2":"2 57637  43.0012  75.3515 0001138 268.0919  91.9803 15.27574174171916","mean_motion":15.27574174,"eccentricity":0.0001138,"inclination_deg":43.0012,"raan_deg":75.3515,"arg_perigee_deg":268.0919,"mean_anomaly_deg":91.9803,"bstar":3.3986e-5,"rev_number":17191,"period_min":94.26710823667,"perigee_km":482.285736272,"apogee_km":483.84734619798,"semimajor_km":6861.203541235,"source":"CELESTRAK","updated_at":"2026-09-21T09:00:33.665981Z"}}}